Location: Andrest
(43.3200°N, 0.0641°E)
Time: 17:41:07
(UTC+00:00)

Cosmos 2181 Rocket - Visible Passes

Search period start: 16 April 2021 00:00
Search period end: 26 April 2021 00:00
Orbit: 951 x 1015 km, 82.9° (Epoch: 15 April)

Date Brightness Start Highest point End Pass type
(mag) Time Alt. Az. Time Alt. Az. Time Alt. Az.
16 Apr 4.3 01:33:07 58° E 01:33:07 58° E 01:39:08 10° NNE visible
16 Apr 5.2 03:17:56 23° W 03:18:55 23° WNW 03:23:51 10° NNW visible
17 Apr 6.0 00:15:56 17° E 00:15:56 17° E 00:19:38 10° NE visible
17 Apr 3.9 02:00:46 78° WNW 02:00:46 78° WNW 02:06:59 10° N visible
17 Apr 5.8 03:45:35 12° WNW 03:47:17 13° WNW 03:49:55 10° NW visible
18 Apr 5.3 00:43:34 31° E 00:43:34 31° E 00:48:35 10° NNE visible
18 Apr 4.5 02:28:24 43° W 02:28:33 43° WNW 02:34:30 10° N visible
19 Apr 4.4 01:11:11 55° ENE 01:11:11 55° ENE 01:16:50 10° NNE visible
19 Apr 5.2 02:56:01 24° WNW 02:56:39 24° WNW 03:01:37 10° NNW visible
19 Apr 6.1 23:53:58 16° ENE 23:53:58 16° ENE 23:57:15 10° NE visible
20 Apr 4.0 01:38:48 76° NW 01:38:48 76° NW 01:44:42 10° N visible
20 Apr 5.9 03:23:37 12° WNW 03:24:59 13° WNW 03:27:46 10° NW visible
21 Apr 5.4 00:21:33 29° ENE 00:21:33 29° ENE 00:26:17 10° NNE visible
21 Apr 4.5 02:06:23 44° WNW 02:06:23 44° WNW 02:12:15 10° N visible
22 Apr 4.5 00:49:09 52° ENE 00:49:09 52° ENE 00:54:33 10° NNE visible
22 Apr 5.2 02:33:58 24° WNW 02:34:22 25° WNW 02:39:23 10° NNW visible
22 Apr 6.0 23:31:53 15° ENE 23:31:53 15° ENE 23:34:52 10° NE visible
23 Apr 4.0 01:16:43 74° NNW 01:16:43 74° NNW 01:22:26 10° N visible
23 Apr 5.9 03:01:32 13° WNW 03:02:42 13° WNW 03:05:36 10° NW visible
23 Apr 5.4 23:59:27 28° ENE 23:59:27 28° ENE 00:03:58 10° NNE visible
24 Apr 4.5 01:44:16 45° WNW 01:44:16 45° WNW 01:50:00 10° N visible
25 Apr 4.6 00:27:00 50° ENE 00:27:00 50° ENE 00:32:15 10° NNE visible
25 Apr 5.3 02:11:49 25° WNW 02:12:07 25° WNW 02:17:09 10° NNW visible
25 Apr 6.0 23:09:43 15° ENE 23:09:43 15° ENE 23:12:28 10° NE visible
